#timestamp,LO_Frequency,Hit,StdDev 
1608145215.9,286047009.7,N
1608145235.7,286047004.1,N
1608145255.6,286046996.5,N
1608145275.4,286047000.0,N
1608145295.2,286047001.9,N
1608145315.1,286047002.8,N
1608145316.0,286047002.8,N
1608145335.8,286046996.3,N
1608145355.7,286046989.0,N
1608145375.5,286046986.9,N
1608145395.3,286046992.7,N
1608145415.2,286046993.2,N
1608145435.0,286046993.8,N
1608145435.9,286046993.8,N
1608145455.7,286046995.2,N
1608145475.6,286046997.9,N
1608145495.4,286046994.7,N
1608145515.3,286046983.9,N
1608145535.1,286046991.6,N
1608145536.0,286046991.6,N
1608145555.8,286046989.6,N
1608145575.7,286046984.0,N
1608145595.5,286046976.2,N
1608145615.3,286046975.1,N
1608145635.2,286046977.8,N
1608145655.0,286046980.9,N
1608145655.9,286046980.9,N
1608145675.8,286046983.7,N
1608145695.6,286046984.3,N
1608145715.4,286046987.2,N
1608145735.3,286046984.7,N
1608145755.1,286046984.8,N
1608145775.9,286046989.1,N
1608145795.7,286046993.0,N
1608145815.5,286047001.4,N
1608145835.4,286047010.4,N
1608145855.2,286047006.6,N
1608145875.0,286047007.7,N
1608145875.9,286047007.7,N
1608145895.8,286047008.8,N
1608145915.6,286047010.8,N
1608145935.5,286047010.8,N
1608145955.3,286047005.3,N
1608145975.1,286047001.3,N
1608145995.9,286047004.1,N
1608146015.7,286047002.2,N
1608146035.5,286047004.6,N
1608146055.4,286047005.2,N
1608146075.2,286047008.1,N
1608146095.1,286047008.1,N
1608146096.0,286047008.1,N
1608146115.8,286047010.6,N
1608146135.6,286047009.3,N
1608146155.5,286047009.3,N
1608146175.3,286047012.5,N
1608146195.1,286047011.4,N
1608146215.9,286047015.0,N
1608146235.7,286047012.5,N
1608146255.6,286047014.1,N
1608146275.4,286047015.2,N
1608146295.2,286047016.0,N
1608146315.1,286047022.0,Y
1608146316.0,286047022.0,P
1608146335.8,286047017.9,N
1608146355.6,286047023.8,P
1608146375.5,286047027.8,Y
1608146395.3,286047006.4,P
1608146415.2,286047002.8,N
1608146435.9,286046998.4,N
1608146455.7,286046992.6,N
1608146475.6,286046984.2,N
1608146495.4,286046987.7,N
1608146515.3,286046986.2,N
1608146535.1,286046991.1,N
1608146536.0,286046991.1,N
1608146555.8,286046986.2,N
1608146575.7,286046985.4,N
1608146595.5,286046989.0,N
1608146615.3,286046992.8,N
1608146635.2,286046988.9,N
1608146655.0,286046994.6,N
1608146655.9,286046994.6,N
1608146675.8,286046995.7,N
1608146695.6,286046995.2,N
1608146715.4,286046995.3,N
1608146735.3,286047002.4,N
1608146755.1,286047005.8,N
1608146775.8,286047005.5,N
1608146795.7,286047001.0,N
1608146815.5,286046996.8,N
1608146835.4,286046999.6,N
1608146855.2,286047011.9,N
1608146875.0,286046994.2,N
1608146875.9,286046994.2,N
1608146895.8,286046991.9,N
1608146915.6,286046988.7,N
1608146935.4,286046989.9,N
1608146955.3,286046983.7,N
1608146975.1,286046990.0,N
1608146995.9,286046991.1,N
1608147015.7,286046986.2,N
1608147035.5,286046985.0,N
1608147055.4,286046986.2,N
1608147075.2,286046984.2,N
1608147095.0,286046983.1,N
1608147095.9,286046983.1,N
1608147115.8,286046983.1,N
1608147135.6,286046982.6,N
1608147155.5,286046984.1,N
1608147175.3,286046992.5,N
1608147195.1,286046993.2,N
1608147215.9,286046993.5,N
1608147235.7,286046999.6,N
1608147255.5,286046999.2,N
1608147275.4,286047000.1,N
1608147295.2,286047003.4,N
1608147315.1,286047004.2,N
1608147316.0,286047004.2,N
1608147335.8,286046995.2,N
1608147355.6,286046982.6,N
1608147375.5,286046989.9,N
1608147395.3,286046991.5,N
1608147415.1,286046994.3,N
1608147435.9,286047000.9,N
1608147455.7,286047003.2,N
1608147475.6,286047005.4,N
1608147495.4,286047003.6,N
1608147515.2,286047004.7,N
1608147535.1,286046999.3,N
1608147536.0,286046999.3,N
1608147555.8,286047001.2,N
1608147575.6,286047001.0,N
1608147595.5,286046997.7,N
1608147615.3,286047003.5,N
1608147635.2,286047007.4,N
1608147655.9,286047009.0,N
1608147675.7,286047007.2,N
1608147695.6,286047002.4,N
1608147715.4,286046999.1,N
1608147735.2,286047000.8,N
1608147755.1,286047005.9,N
1608147756.0,286047005.9,N
1608147775.8,286047004.3,N
1608147795.7,286046995.3,N
1608147815.5,286046988.4,N
1608147835.3,286046989.5,N
1608147855.2,286046994.2,N
1608147875.0,286047003.2,N
1608147875.9,286047003.2,N
1608147895.8,286047007.0,N
1608147915.6,286047011.1,N
1608147935.4,286047009.8,N
1608147955.3,286047009.9,N
1608147975.1,286047003.7,N
1608147995.9,286047005.0,N
1608148015.7,286047006.4,N
1608148035.5,286047008.2,N
1608148055.4,286047009.8,N
1608148075.2,286047002.3,N
1608148095.0,286047000.9,N
1608148095.9,286047000.9,N
1608148115.8,286047001.1,N
1608148135.6,286047003.0,N
1608148155.5,286047002.9,N
1608148175.3,286047005.6,N
1608148195.1,286047005.6,N
1608148215.9,286047009.0,N
1608148235.7,286047003.8,N
1608148255.6,286046997.0,N
1608148275.4,286046992.6,N
1608148295.2,286046992.8,N
1608148315.1,286046995.3,N
1608148316.0,286046995.3,N
1608148335.8,286046998.8,N
1608148355.7,286047000.7,N
1608148375.5,286046997.8,N
1608148395.3,286046997.8,N
1608148415.2,286046998.2,N
1608148435.0,286047002.4,N
1608148435.9,286047002.4,N
1608148455.8,286047000.8,N
1608148475.6,286046999.5,N
1608148495.5,286046991.7,N
1608148515.3,286047002.6,N
1608148535.2,286046997.2,N
1608148555.9,286046992.6,N
1608148575.8,286046990.1,N
1608148595.6,286046985.8,N
1608148615.4,286046982.6,Y
1608148635.3,286046979.6,P
1608148655.1,286046974.2,N
1608148675.9,286046972.4,N
1608148695.7,286046961.6,Y
1608148715.6,286046979.0,P
1608148735.4,286046984.0,P
1608148755.2,286046984.3,P
1608148775.1,286046988.1,Y
1608148776.0,286046988.1,P
1608148795.8,286047001.8,N
